The Dalles, WA

1:45 PM PST on December 15, 2019 (GMT -0800)
Columbia Gorge Regional-The Dalles

Weather History for KDLS - November, 2019

Change the Weather History Date:

Friday, November 15, 2019

  Actual Average Record
Temperature  
Mean Temperature 49 °F -  
Max Temperature 54 °F 48 °F 63 °F (2010)
Min Temperature 44 °F 35 °F 1 °F (1955)
Degree Days  
Heating Degree Days 16    
Moisture  
Dew Point 42 °F    
Average Humidity 80    
Maximum Humidity 89    
Minimum Humidity 71    
Precipitation  
Precipitation 0.00 in - - ()
Sea Level Pressure  
Sea Level Pressure 30.17 in    
Wind  
Wind Speed 2 mph (WNW)    
Max Wind Speed 9 mph    
Max Gust Speed -    
Visibility 10 miles    
Events      
Averages and records for this station are not official NWS values.
T = Trace of Precipitation, MM = Missing Value Source: NWS Daily Summary

Daily Weather History Graph

Daily Weather History Graph

Search for Another Location

Airport or City:

Astronomy

Nov. 15, 2019 Rise Set
Actual Time 7:03 AM PST 4:34 PM PST
Civil Twilight 6:31 AM PST 5:06 PM PST
Nautical Twilight 5:55 AM PST 5:42 PM PST
Astronomical Twilight 5:20 AM PST 6:17 PM PST
Moon 7:08 PM PST 10:11 AM PST
Length of Visible Light 10h 34m
Length of Day
9h 30m
Waning Gibbous, 89% of the Moon is Illuminated
Nov 15
Waning Gibbous
Nov 19
Last Quarter
Nov 26
New
Dec 3
First Quarter
Dec 11
Full

Hourly Weather History & Observations

Time (PST) Temp. Windchill Dew Point Humidity Pressure Visibility Wind Dir Wind Speed Gust Speed Precip Events Conditions
12:53 AM 45.0 °F - 39.9 °F 82% 30.14 in 10.0 mi Calm Calm - N/A   Overcast
1:53 AM 44.1 °F - 39.9 °F 85% 30.14 in 10.0 mi Calm Calm - N/A   Overcast
2:53 AM 44.1 °F 42.5 °F 39.9 °F 85% 30.14 in 10.0 mi WSW 3.5 mph - N/A   Overcast
3:53 AM 44.1 °F - 39.0 °F 82% 30.12 in 10.0 mi Calm Calm - N/A   Overcast
4:53 AM 44.1 °F - 39.0 °F 82% 30.12 in 10.0 mi Calm Calm - N/A   Overcast
5:53 AM 44.1 °F - 39.0 °F 82% 30.12 in 10.0 mi Calm Calm - N/A   Overcast
6:53 AM 44.1 °F - 39.0 °F 82% 30.12 in 10.0 mi Calm Calm - N/A   Overcast
7:53 AM 44.1 °F - 39.9 °F 85% 30.14 in 8.0 mi Calm Calm - N/A   Overcast
8:25 AM 45.0 °F - 39.9 °F 82% 30.14 in 7.0 mi Calm Calm - N/A   Overcast
8:53 AM 45.0 °F - 39.9 °F 82% 30.14 in 8.0 mi Calm Calm - N/A   Overcast
9:53 AM 46.9 °F - 41.0 °F 80% 30.16 in 8.0 mi NW 4.6 mph - N/A   Overcast
10:53 AM 48.0 °F - 39.9 °F 74% 30.16 in 10.0 mi SSW 3.5 mph - N/A   Overcast
11:53 AM 48.9 °F - 39.9 °F 71% 30.16 in 10.0 mi Calm Calm - N/A   Overcast
12:04 PM 48.9 °F - 41.0 °F 74% 30.15 in 10.0 mi North 3.5 mph - N/A   Overcast
12:45 PM 48.0 °F - 41.0 °F 77% 30.15 in 10.0 mi NW 5.8 mph - N/A   Overcast
12:53 PM 48.0 °F - 41.0 °F 77% 30.16 in 10.0 mi NW 4.6 mph - N/A   Overcast
1:16 PM 48.0 °F - 41.0 °F 77% 30.15 in 10.0 mi NNW 3.5 mph - N/A   Overcast
1:53 PM 48.0 °F - 42.1 °F 80% 30.15 in 9.0 mi NW 3.5 mph - N/A   Overcast
2:53 PM 48.9 °F - 43.0 °F 80% 30.16 in 9.0 mi SW 3.5 mph - N/A   Overcast
3:53 PM 48.0 °F - 43.0 °F 83% 30.18 in 9.0 mi Calm Calm - 0.00 in   Overcast
4:53 PM 46.0 °F - 42.1 °F 86% 30.18 in 10.0 mi Calm Calm - N/A   Clear
5:53 PM 46.0 °F 42.5 °F 43.0 °F 89% 30.19 in 7.0 mi SW 6.9 mph - N/A   Overcast
6:53 PM 54.0 °F - 46.0 °F 75% 30.21 in 10.0 mi West 8.1 mph - N/A   Overcast
7:53 PM 53.1 °F - 45.0 °F 74% 30.22 in 10.0 mi West 5.8 mph - N/A   Mostly Cloudy
8:53 PM 51.1 °F - 45.0 °F 80% 30.24 in 10.0 mi West 9.2 mph - N/A   Partly Cloudy
9:53 PM 53.1 °F - 45.0 °F 74% 30.26 in 10.0 mi Variable 3.5 mph - N/A   Mostly Cloudy
10:53 PM 53.1 °F - 45.0 °F 74% 30.28 in 10.0 mi NNW 4.6 mph - N/A   Overcast
11:53 PM 50.0 °F - 44.1 °F 80% 30.29 in 10.0 mi Calm Calm - N/A   Mostly Cloudy